Location: Archamps
(46.1365°N, 6.1329°E)
Time: 12:40:45
(UTC+00:00)

CZ-4 R/B - Visible Passes

Search period start: 25 September 2023 00:00
Search period end: 05 October 2023 00:00
Orbit: 521 x 583 km, 97.7° (Epoch: 24 September)

Date Brightness Start Highest point End Pass type
(mag) Time Alt. Az. Time Alt. Az. Time Alt. Az.
25 Sep 2.1 18:06:43 10° SE 18:10:09 30° ENE 18:13:32 10° N visible
25 Sep 3.6 19:41:51 10° SSW 19:44:57 22° W 19:48:01 10° NW visible
26 Sep 2.2 18:03:11 10° SE 18:06:29 28° ENE 18:09:47 10° N visible
26 Sep 3.5 19:38:03 10° SSW 19:41:15 24° W 19:44:26 10° NW visible
27 Sep 2.3 17:59:38 10° SE 18:02:51 25° ENE 18:06:01 10° NNE visible
27 Sep 3.3 19:34:15 10° SSW 19:37:32 27° W 19:40:50 10° NW visible
28 Sep 2.5 17:56:06 10° ESE 17:59:11 23° ENE 18:02:15 10° NNE visible
28 Sep 3.1 19:30:26 10° SSW 19:33:50 29° W 19:37:13 10° NW visible
29 Sep 2.6 17:52:34 10° ESE 17:55:30 21° ENE 17:58:26 10° NNE visible
29 Sep 3.0 19:26:38 10° SSW 19:30:07 32° W 19:33:35 10° NNW visible
30 Sep 2.7 17:49:01 10° ESE 17:51:50 20° ENE 17:54:37 10° NNE visible
30 Sep 2.8 19:22:50 10° SSW 19:26:23 35° W 19:29:55 10° NNW visible
01 Oct 2.8 17:45:30 10° ESE 17:48:08 18° ENE 17:50:47 10° NNE visible
01 Oct 2.6 19:19:21 12° SSW 19:22:39 38° W 19:26:15 10° NNW visible
02 Oct 2.9 17:41:59 10° ESE 17:44:27 17° ENE 17:46:55 10° NNE visible
02 Oct 2.4 19:15:50 14° SSW 19:18:55 43° W 19:22:34 10° NNW visible
03 Oct 3.0 17:38:29 10° E 17:40:45 15° ENE 17:43:00 10° NNE visible
03 Oct 2.2 19:12:18 16° S 19:15:10 47° W 19:18:52 10° NNW visible
04 Oct 1.9 19:08:46 18° S 19:11:24 53° W 19:15:08 10° NNW visible
